Home   Weather   Budapest   Past weeks

Flag for Hungary Past Weather in Budapest, Hungary — Yesterday and Last 2 Weeks

Now
63 °F

Passing clouds.


Feels Like: 63 °F
Forecast: 45 / 70 °F
Wind: 5 mph from East

Location: Ferenc Liszt International Airport

Current Time: Sep 26, 2016 at 10:52:49 AM

Latest Report: Sep 26, 2016 at 10:00 AM


Visibility: N/A

Pressure: 30.21 "Hg

Humidity: 56%

Dew Point: 46 °F

Location of BudapestLocation

Past Weather in Budapest — Graph

°F

Budapest Temperature Yesterday

Maximum temperature yesterday: 66 °F (at 1:30 PM)
Minimum temperature yesterday: 45 °F (at 3:30 AM)
Average temperature yesterday: 55 °F

High & Low Weather Summary for the Past Weeks

 TemperatureHumidityPressure
High88 °F (Sep 11, 3:00 PM)100% (Sep 14, 2:00 AM)30.33 "Hg (Sep 14, 2:00 AM)
Low39 °F (Sep 23, 6:00 AM)33% (Sep 23, 3:00 PM)29.71 "Hg (Sep 19, 2:00 PM)
Average63 °F74%30.04 "Hg
* Reported Sep 11 10:00 AM — Sep 26 10:00 AM, Budapest, Weather by CustomWeather, © 2016

Note: Actual official high and low records may vary slightly from our data, if they occured in-between our weather recording intervals... More about our weather records

Advertising

Budapest Weather History for the Previous 24 Hours

Scroll right to see more
 ConditionsComfort  
Time TempWeatherWind HumidityBarometerVisibility
10:00 AM
Mon, Sep 26
63 °FPassing clouds.5 mph56%30.21 "HgN/A
9:30 AM61 °FPassing clouds.8 mph59%30.21 "HgN/A
9:00 AM57 °FSunny.2 mph77%30.21 "Hg10 mi
8:30 AM55 °FSunny.6 mph77%30.18 "Hg10 mi
8:00 AM54 °FSunny.7 mph82%30.18 "Hg10 mi
7:30 AM52 °FSunny.5 mph82%30.18 "Hg10 mi
7:00 AM50 °FSunny.6 mph88%30.18 "Hg10 mi
6:30 AM50 °FClear.7 mph94%30.18 "Hg10 mi
6:00 AM48 °FClear.8 mph94%30.18 "Hg10 mi
5:30 AM50 °FPassing clouds.6 mph88%30.18 "HgN/A
5:00 AM48 °FClear.5 mph87%30.18 "Hg10 mi
4:30 AM50 °FClear.5 mph88%30.18 "Hg10 mi
4:00 AM50 °FClear.5 mph88%30.18 "Hg10 mi
3:30 AM50 °FClear.2 mph94%30.18 "Hg10 mi
3:00 AM50 °FClear.5 mph88%30.18 "Hg10 mi
2:30 AM50 °FClear.3 mph88%30.18 "Hg10 mi
2:00 AM52 °FClear.1 mph82%30.18 "Hg10 mi
1:30 AM54 °FClear.3 mph77%30.18 "Hg10 mi
1:00 AM55 °FClear.6 mph72%30.18 "Hg10 mi
12:30 AM50 °FClear.1 mph88%30.18 "Hg10 mi
12:00 AM50 °FClear.3 mph88%30.18 "Hg10 mi
11:30 PM
Sun, Sep 25
52 °FPassing clouds.5 mph82%30.18 "HgN/A
11:00 PM50 °FPassing clouds.2 mph88%30.18 "HgN/A
10:30 PM50 °FClear.3 mph94%30.18 "Hg10 mi
10:00 PM52 °FClear.1 mph88%30.18 "Hg10 mi
9:30 PM52 °FClear.1 mph88%30.15 "Hg10 mi
9:00 PM54 °FClear.2 mph88%30.15 "Hg10 mi
8:30 PM52 °FPassing clouds.2 mph94%30.15 "HgN/A
8:00 PM57 °FClear.1 mph77%30.15 "Hg10 mi
7:30 PM59 °FPassing clouds.No wind72%30.15 "HgN/A
7:00 PM55 °FPassing clouds.3 mph82%30.15 "HgN/A
6:30 PM63 °FPassing clouds.5 mph64%30.15 "HgN/A
6:00 PM64 °FSunny.5 mph64%30.15 "Hg10 mi
5:30 PM64 °FSunny.2 mph73%30.15 "Hg10 mi
5:00 PM66 °FSunny.2 mph73%30.15 "Hg10 mi
4:30 PM66 °FSunny.3 mph64%30.15 "Hg10 mi
4:00 PM66 °FPartly sunny.5 mph60%30.15 "HgN/A
3:30 PM66 °FPartly sunny.6 mph64%30.15 "HgN/A
3:00 PM66 °FPassing clouds.6 mph64%30.15 "HgN/A
2:30 PM66 °FSunny.3 mph64%30.18 "Hg10 mi
2:00 PM64 °FPassing clouds.6 mph64%30.18 "HgN/A
1:30 PM66 °FSunny.2 mph60%30.18 "Hg10 mi
1:00 PM64 °FPassing clouds.5 mph56%30.18 "HgN/A
12:30 PM64 °FPassing clouds.6 mph64%30.21 "HgN/A
12:00 PM64 °FPassing clouds.6 mph60%30.21 "HgN/A
11:30 AM64 °FPassing clouds.8 mph56%30.21 "HgN/A
11:00 AM63 °FPassing clouds.5 mph59%30.21 "HgN/A
10:30 AM63 °FPassing clouds.5 mph64%30.21 "HgN/A
10:00 AM61 °FPassing clouds.5 mph68%30.24 "HgN/A
Weather by CustomWeather, © 2016

See weather overviewHow to use our weather pages